ORBCOMM FM08 [-]

Last updated on Fri Dec 29 2023 00:02:53 GMT+0000 (Coordinated Universal Time)

1 25112U 97084A 23362.14089456 .00002208 00000+0 71345-3 0 9996 2 25112 45.0158 57.2799 0005414 50.2375 309.8952 14.41756132363935

Satellite not in orbit

ORBCOMM FM08 [-]